When you browse on this site, cookies collect data to enhance your experience and personalize the content and advertising you see.
Visit our Privacy Policy to learn more. By continuing to use the site, you agree to this use of cookies and data.
  • In Austria
  • List of Countries
  • For 7 days
  • Water Temperature
  • Weather Map
  • News
  • Weather Widgets
  • user-avatar
    Login

    Hourly Weather Melbourne

    Today, 22 January, Wednesday

    Time Temperature Precipitation Wind Pressure Humidity
    00:00 +17°C° 0 mm 2 mps 753 mmHg 64%
    01:00 +17°C° 0 mm 3 mps 753 mmHg 61%
    02:00 +18°C° 0 mm 3 mps 752 mmHg 60%
    03:00 +18°C° 0 mm 4 mps 752 mmHg 59%
    04:00 +19°C° 0 mm 4 mps 751 mmHg 58%
    05:00 +20°C° 0 mm 5 mps 751 mmHg 55%
    06:00 +21°C° 0 mm 6 mps 751 mmHg 51%
    07:00 +22°C° 0 mm 7 mps 751 mmHg 48%
    08:00 +24°C° 0 mm 8 mps 750 mmHg 43%
    09:00 +27°C° 0 mm 8 mps 750 mmHg 39%
    10:00 +29°C° 0 mm 9 mps 749 mmHg 34%
    11:00 +31°C° 0 mm 9 mps 748 mmHg 30%
    12:00 +33°C° 0 mm 9 mps 747 mmHg 25%
    13:00 +36°C° 0 mm 10 mps 746 mmHg 21%
    14:00 +35°C° 0 mm 9 mps 746 mmHg 21%
    15:00 +37°C° 0 mm 8 mps 745 mmHg 20%
    16:00 +36°C° 0 mm 7 mps 745 mmHg 20%
    17:00 +32°C° 0 mm 7 mps 745 mmHg 35%
    18:00 +27°C° 0 mm 6 mps 745 mmHg 49%
    19:00 +22°C° 0 mm 6 mps 745 mmHg 64%
    20:00 +21°C° 0.8 mm 5 mps 746 mmHg 70%
    21:00 +20°C° 0.8 mm 4 mps 746 mmHg 77%
    22:00 +19°C° 0.8 mm 3 mps 747 mmHg 83%
    23:00 +17°C° 2 mm 5 mps 747 mmHg 84%

    Tomorrow, 23 January, Thursday

    Time Temperature Precipitation Wind Pressure Humidity
    00:00 +16°C° 2 mm 6 mps 746 mmHg 85%
    01:00 +16°C° 2 mm 7 mps 746 mmHg 86%
    02:00 +15°C° 4.5 mm 5 mps 746 mmHg 86%
    03:00 +15°C° 4.5 mm 4 mps 746 mmHg 85%
    04:00 +14°C° 4.5 mm 3 mps 746 mmHg 85%
    05:00 +16°C° 2.3 mm 3 mps 746 mmHg 84%
    06:00 +15°C° 2.3 mm 4 mps 746 mmHg 82%
    07:00 +15°C° 2.3 mm 4 mps 747 mmHg 80%
    08:00 +15°C° 0.4 mm 5 mps 747 mmHg 78%
    09:00 +16°C° 0.4 mm 5 mps 747 mmHg 76%
    10:00 +16°C° 0.4 mm 6 mps 747 mmHg 73%
    11:00 +18°C° 0.4 mm 7 mps 747 mmHg 65%
    12:00 +20°C° 0.4 mm 7 mps 747 mmHg 57%
    13:00 +22°C° 0.4 mm 8 mps 748 mmHg 49%
    14:00 +22°C° 0 mm 7 mps 748 mmHg 45%
    15:00 +22°C° 0 mm 7 mps 748 mmHg 41%
    16:00 +22°C° 0 mm 6 mps 748 mmHg 37%
    17:00 +22°C° 0 mm 5 mps 749 mmHg 40%
    18:00 +21°C° 0 mm 5 mps 750 mmHg 42%
    19:00 +20°C° 0 mm 4 mps 750 mmHg 45%
    20:00 +19°C° 0 mm 4 mps 751 mmHg 46%
    21:00 +19°C° 0 mm 4 mps 751 mmHg 48%
    22:00 +18°C° 0 mm 3 mps 752 mmHg 49%
    23:00 +17°C° 0 mm 4 mps 752 mmHg 51%

    Day after tomorrow, 24 January, Friday

    Time Temperature Precipitation Wind Pressure Humidity
    00:00 +15°C° 0 mm 4 mps 752 mmHg 53%
    01:00 +14°C° 0 mm 4 mps 752 mmHg 55%
    02:00 +14°C° 0 mm 4 mps 753 mmHg 57%
    03:00 +13°C° 0 mm 4 mps 753 mmHg 58%
    04:00 +13°C° 0 mm 4 mps 753 mmHg 60%
    05:00 +14°C° 0 mm 5 mps 754 mmHg 60%
    06:00 +14°C° 0 mm 5 mps 754 mmHg 60%
    07:00 +15°C° 0 mm 5 mps 755 mmHg 59%
    08:00 +16°C° 0 mm 5 mps 755 mmHg 54%
    09:00 +19°C° 0 mm 4 mps 755 mmHg 48%
    10:00 +20°C° 0 mm 4 mps 756 mmHg 43%
    11:00 +21°C° 0 mm 4 mps 756 mmHg 41%
    12:00 +22°C° 0 mm 4 mps 756 mmHg 39%
    13:00 +23°C° 0 mm 4 mps 756 mmHg 38%
    14:00 +25°C° 0 mm 4 mps 755 mmHg 38%
    15:00 +25°C° 0 mm 3 mps 755 mmHg 39%
    16:00 +25°C° 0 mm 3 mps 755 mmHg 40%
    17:00 +25°C° 0 mm 3 mps 756 mmHg 42%
    18:00 +24°C° 0 mm 2 mps 756 mmHg 45%
    19:00 +24°C° 0 mm 2 mps 757 mmHg 47%
    20:00 +23°C° 0 mm 2 mps 757 mmHg 50%
    21:00 +21°C° 0 mm 2 mps 757 mmHg 52%
    22:00 +21°C° 0 mm 1 mps 758 mmHg 55%
    23:00 +20°C° 0 mm 1 mps 758 mmHg 59%

    25 January, Saturday

    Time Temperature Precipitation Wind Pressure Humidity
    00:00 +20°C° 0 mm 1 mps 758 mmHg 62%
    01:00 +19°C° 0 mm 1 mps 758 mmHg 66%
    02:00 +19°C° 0 mm 1 mps 758 mmHg 69%
    03:00 +18°C° 0 mm 1 mps 758 mmHg 72%
    04:00 +18°C° 0 mm 1 mps 758 mmHg 74%
    05:00 +18°C° 0 mm 1 mps 758 mmHg 72%
    06:00 +18°C° 0 mm 2 mps 759 mmHg 70%
    07:00 +18°C° 0 mm 2 mps 759 mmHg 68%
    08:00 +20°C° 0 mm 2 mps 759 mmHg 60%
    09:00 +23°C° 0 mm 2 mps 759 mmHg 52%
    10:00 +25°C° 0 mm 2 mps 759 mmHg 45%
    11:00 +26°C° 0 mm 2 mps 759 mmHg 40%
    12:00 +28°C° 0 mm 2 mps 758 mmHg 36%
    13:00 +29°C° 0 mm 2 mps 758 mmHg 32%
    14:00 +29°C° 0 mm 2 mps 758 mmHg 32%
    15:00 +30°C° 0 mm 3 mps 757 mmHg 31%
    16:00 +30°C° 0 mm 3 mps 757 mmHg 31%
    17:00 +28°C° 0 mm 3 mps 757 mmHg 39%
    18:00 +26°C° 0 mm 4 mps 757 mmHg 48%
    19:00 +23°C° 0 mm 4 mps 758 mmHg 56%
    20:00 +22°C° 0 mm 3 mps 758 mmHg 62%
    21:00 +20°C° 0 mm 3 mps 758 mmHg 69%
    22:00 +19°C° 0 mm 2 mps 758 mmHg 75%
    23:00 +18°C° 0 mm 2 mps 758 mmHg 76%

    26 January, Sunday

    Time Temperature Precipitation Wind Pressure Humidity
    00:00 +19°C° 0 mm 1 mps 758 mmHg 78%
    01:00 +19°C° 0 mm 1 mps 758 mmHg 80%
    02:00 +18°C° 0 mm 1 mps 758 mmHg 81%
    03:00 +18°C° 0 mm 1 mps 758 mmHg 82%
    04:00 +18°C° 0 mm 1 mps 758 mmHg 83%
    05:00 +19°C° 0 mm 1 mps 758 mmHg 81%
    06:00 +19°C° 0 mm 1 mps 758 mmHg 78%
    07:00 +20°C° 0 mm 1 mps 758 mmHg 75%
    08:00 +22°C° 0 mm 1 mps 758 mmHg 66%
    09:00 +24°C° 0 mm 1 mps 758 mmHg 57%
    10:00 +27°C° 0 mm 1 mps 758 mmHg 48%
    11:00 +28°C° 0 mm 1 mps 758 mmHg 44%
    12:00 +29°C° 0 mm 2 mps 757 mmHg 40%
    13:00 +30°C° 0 mm 2 mps 757 mmHg 36%
    14:00 +30°C° 0 mm 3 mps 757 mmHg 37%
    15:00 +30°C° 0 mm 3 mps 756 mmHg 38%
    16:00 +30°C° 0 mm 4 mps 756 mmHg 39%
    17:00 +28°C° 0 mm 4 mps 756 mmHg 47%
    18:00 +26°C° 0 mm 4 mps 756 mmHg 55%
    19:00 +23°C° 0 mm 4 mps 756 mmHg 64%
    20:00 +22°C° 0 mm 4 mps 757 mmHg 67%
    21:00 +21°C° 0 mm 3 mps 757 mmHg 71%
    22:00 +20°C° 0 mm 2 mps 757 mmHg 74%
    23:00 +20°C° 0 mm 2 mps 757 mmHg 77%

    27 January, Monday

    Time Temperature Precipitation Wind Pressure Humidity
    00:00 +19°C° 0 mm 2 mps 756 mmHg 79%
    01:00 +20°C° 0 mm 1 mps 756 mmHg 81%
    02:00 +19°C° 0 mm 1 mps 755 mmHg 82%
    03:00 +19°C° 0 mm 1 mps 755 mmHg 83%
    04:00 +19°C° 0 mm 1 mps 754 mmHg 84%
    05:00 +20°C° 0 mm 1 mps 754 mmHg 78%
    06:00 +20°C° 0 mm 2 mps 754 mmHg 72%
    07:00 +21°C° 0 mm 2 mps 753 mmHg 67%
    08:00 +26°C° 0 mm 3 mps 753 mmHg 53%
    09:00 +29°C° 0 mm 4 mps 753 mmHg 40%
    10:00 +34°C° 0 mm 5 mps 752 mmHg 27%
    11:00 +35°C° 0 mm 5 mps 752 mmHg 25%
    12:00 +36°C° 0 mm 6 mps 751 mmHg 22%
    13:00 +38°C° 0 mm 6 mps 750 mmHg 20%
    14:00 +38°C° 0 mm 6 mps 750 mmHg 20%
    15:00 +38°C° 0 mm 6 mps 749 mmHg 20%
    16:00 +38°C° 0 mm 6 mps 749 mmHg 20%
    17:00 +33°C° 0 mm 5 mps 748 mmHg 31%
    18:00 +29°C° 0 mm 4 mps 748 mmHg 43%
    19:00 +25°C° 0 mm 3 mps 748 mmHg 54%
    20:00 +25°C° 0 mm 3 mps 748 mmHg 53%
    21:00 +25°C° 0 mm 2 mps 748 mmHg 52%
    22:00 +25°C° 0 mm 1 mps 748 mmHg 51%
    23:00 +24°C° 0 mm 1 mps 748 mmHg 54%
    Show more